Theta_e
323 320 318 319 322 335 337 338 339 345 349 348 351 348 347 346 345 344 343 343 346 342
319 322 319 319 322 333 341 338 337 341 348 350 350 349 345 345 346 344 349 343 347 348
317 321 323 321 322 331 337 339 339 337 343 349 349 348 345 347 347 347 345 348 345 349
316 318 324 325 323 329 331 338 334 327 341 348 348 349 347 345 347 347 345 347 348 346
313 317 319 326 326 327 327 339 336 330 343 347 348 348 347 344 348 347 346 344 347 345
311 315 317 319 327 327 328 335 341 336 336 340 345 346 348 347 346 345 347 346 344 346
309 312 316 319 325 326 327 331 337 334 335 333 335 335 345 346 345 346 344 347 345 346
308 311 315 318 321 327 329 331 336 331 334 333 333 332 333 338 341 342 344 345 347 345
307 310 313 316 320 327 328 331 334 333 329 332 333 316 315 320 326 336 342 343 345 346
306 308 311 316 319 327 326 330 332 328 329 327 329 311 312 315 325 327 341 344 345 345
305 306 310 314 315 321 329 327 332 331 330 332 328 309 305 313 326 334 342 346 347 346
302 305 307 309 313 319 327 324 330 331 328 326 326 306 308 312 328 334 343 346 348 342
302 303 305 308 313 315 328 325 331 333 329 322 323 307 305 309 321 340 342 344 337 321
301 302 306 308 313 316 325 324 328 334 329 325 324 319 310 311 321 341 340 334 332 327
Wind_Speed
15 8 9 14 13 13 13 12 24 22 15 19 16 15 14 13 12 12 9 9 8 8
15 9 11 15 13 11 17 15 18 22 29 20 19 17 14 12 12 13 10 10 9 6
14 15 10 11 14 12 11 13 18 16 26 25 23 21 17 13 15 16 13 10 12 8
16 16 11 9 11 9 13 16 16 8 34 23 21 21 18 16 20 18 16 13 13 11
19 17 15 9 9 11 7 12 13 16 19 28 24 22 20 20 19 17 17 16 12 13
18 17 15 16 7 9 8 10 13 12 1 12 16 20 19 19 14 18 17 17 15 13
18 19 15 15 11 7 7 9 7 9 10 9 7 5 10 15 14 15 15 13 15 11
19 19 17 15 14 7 7 7 7 6 7 11 7 2 3 3 9 9 12 13 13 14
19 19 18 14 14 6 7 6 7 10 10 14 11 16 8 6 6 12 14 16 15 13
18 19 19 15 13 7 6 7 4 9 12 13 12 15 18 14 10 15 20 15 14 12
18 18 18 16 14 14 3 5 4 10 10 9 9 11 1 19 15 17 22 15 14 12
17 18 17 18 14 12 5 5 7 10 12 12 13 17 14 9 21 23 23 14 12 12
17 17 17 16 15 11 8 3 7 7 11 15 11 13 20 23 10 18 14 12 11 18
16 15 16 15 13 12 12 6 5 3 15 13 14 15 22 19 15 14 10 9 10 9
Wind_Direction
279 259 279 281 275 284 220 213 205 243 212 193 194 191 182 186 186 189 201 201 191 186
292 262 271 280 284 287 241 216 209 207 211 200 198 199 184 186 181 187 200 197 217 186
300 294 269 282 285 283 262 236 217 220 227 197 194 190 182 180 189 186 192 198 198 196
304 302 290 280 290 288 322 222 219 262 226 196 189 184 180 191 186 184 188 200 192 198
306 305 306 290 299 292 289 252 190 209 244 197 179 183 185 190 182 182 186 193 195 201
303 302 307 311 308 296 296 300 186 186 55 279 172 180 185 183 189 187 188 185 195 187
307 306 304 298 298 284 277 304 263 176 198 216 66 8 204 193 189 189 193 187 187 190
306 301 302 305 304 293 284 278 228 151 189 187 201 171 299 284 214 208 188 194 193 196
303 300 299 294 292 273 289 297 192 195 175 188 178 161 178 204 262 295 207 197 195 197
304 303 298 296 296 274 288 302 186 177 182 165 172 176 185 200 219 240 235 193 191 199
303 302 303 299 300 305 287 291 242 193 191 180 184 104 257 228 226 250 223 196 187 187
306 304 301 309 293 299 275 295 295 193 179 176 186 147 178 219 224 230 206 188 175 139
295 289 289 292 296 301 281 264 282 171 187 174 190 215 170 200 242 217 174 168 146 143
285 278 278 278 285 288 287 254 246 133 166 172 197 213 197 195 228 215 164 146 141 140